weather.gov     
National Weather Service

Regional Weather Roundup
NWS Homepage
This page is being discontinued on March 12, 2014.
The same data is available at this site. Please update your bookmarks.
Thank you, and we apologize for the inconvenience.
Please send an email to SR-SRH.Webmaster@noaa.gov with any concerns.


Current Version
Previous Version:    01  02  03  04  05  06  07  08  09  10  11  12  13  14  15  16  17  18  19  20  21  22  23  24  25  26  27  28  29  30  
   31  32  33  34  35  36  37  38  39  40  41  42  43  44  45  46  47  48  49  50  51  52  53  
[Printable]
395
ASUS44 KJAN 312110
RWRMS

MISSISSIPPI HOURLY WEATHER ROUNDUP
NATIONAL WEATHER SERVICE JACKSON MS
400 PM CDT THU JUL 31 2014

NOTE: "FAIR: INDICATES FEW OR NO CLOUDS BELOW 12,000 FEET WITH NO
SIGNIFICANT WEATHER AND/OR OBSTRUCTIONS TO VISIBILITY.

MSZ001>002-007>008-010>013-018>021-025>028-034>036-312200-
NORTHWEST MISSISSIPPI

CITY           SKY/WX    TMP DP  RH WIND       PRES   REMARKS
CLARKSDALE     CLOUDY    77  66  69 N6        30.08S
CLEVELAND      CLOUDY    79  67  67 N6        30.05S
GREENWOOD      MOSUNNY   84  64  50 VRB5      30.04F
GREENVILLE     CLOUDY    79  65  62 CALM      30.05F
GRENADA        CLOUDY    81  61  50 CALM      30.06S
OLIVE BRANCH   PTSUNNY   75  70  83 N7        30.08F
OXFORD           N/A     81  59  47 N3        30.08F
TUNICA         CLOUDY    73  64  73 N8        30.08S
$$

MSZ003>006-009-014>017-022>024-029>033-037>039-312200-
NORTHEAST MISSISSIPPI

CITY           SKY/WX    TMP DP  RH WIND       PRES   REMARKS
BELMONT        MOCLDY    80  63  56 NE5       30.07F
COLUMBUS AFB   PTSUNNY   82  59  45 NE3       30.06F
CORINTH        MOCLDY    81  63  54 NE5       30.07F
GOLDN TRIANGLE MOSUNNY   82  61  47 NE7       30.06F
STARKVILLE     FAIR      81  59  47 E6        30.06S
TUPELO         PTSUNNY   83  61  47 NE7       30.05F
$$

MSZ040-058-312200-
CENTRAL MISSISSIPPI

CITY           SKY/WX    TMP DP  RH WIND       PRES   REMARKS
JACKSON INTL   CLOUDY    83  62  49 NE3       30.04S
JACKSON HAWKNS CLOUDY    82  62  50 NW3       30.04F
MERIDIAN KEY   PTSUNNY   84  58  40 NE6       30.03S
MERIDIAN NAS   PTSUNNY   83  61  47 NE6       30.04F
RAYMOND        FAIR      81  75  83 CALM      30.04F
VICKSBURG      CLOUDY    80  65  59 SE5       30.04F
$$

MSZ059>079-312200-
SOUTH MISSISSIPPI

CITY           SKY/WX    TMP DP  RH WIND       PRES   REMARKS
BROOKHAVEN     FAIR      79  63  57 CALM      30.06F
COLUMBIA       FAIR      81  70  69 NW5       30.02S
HATTIESBURG    CLOUDY    83  63  50 N5        30.03S
MCCOMB         PTSUNNY   83  62  49 CALM      30.03F
NATCHEZ        CLOUDY    79  66  65 NE7       30.03F
PINE BELT      CLOUDY    81  63  54 NW5       30.05S
$$

MSZ080>082-312200-
COASTAL MISSISSIPPI

CITY           SKY/WX    TMP DP  RH WIND       PRES   REMARKS
BAY ST LOUIS   MOSUNNY  N/A N/A N/A CALM      29.99F
BILOXI         MOSUNNY   87  64  46 SW10      29.99F
PASCAGOULA     MOSUNNY   88  59  37 VRB5      29.99F
GULFPORT       MOSUNNY   89  61  38 S8        29.99F
$$




U.S. Dept. of Commerce
NOAA National Weather Service
1325 East West Highway
Silver Spring, MD 20910
E-mail: w-nws.webmaster@noaa.gov
Page last modified: May 16, 2007
NATIONAL WEATHER SERVICE: for Safety, for Work, for Fun - FOR LIFE